This demonstration page uses our WeatherBlox Daily Observations layout. Learn more.

Left ArrowRight Arrow

39.92423, -83.80882

Hourly Observations for July 25, 2019

Temp ( °F °C ) Dew Point ( °F °C ) Humidity (%) Winds ( mph kmh ) Pressure ( in mb ) Visibility ( mi km ) Precip ( " mm )
12:56 am 00:56 Clear 60 15.6 58 14.4 93 93 N N/A 30.14 1021 10 16.0934 N/A
1:56 am 01:56 Clear 59 15 56 13.3 90 90 N N/A 30.15 1021 10 16.0934 N/A
2:56 am 02:56 Clear 58 14.4 57 13.9 97 97 N N/A 30.15 1021 10 16.0934 N/A
3:56 am 03:56 Clear 57 13.9 56 13.3 96 96 N N/A 30.16 1021 10 16.0934 N/A
4:56 am 04:56 Clear 57 13.9 56 13.3 96 96 N N/A 30.16 1022 10 16.0934 N/A
5:56 am 05:56 Clear 56 13.3 56 13.3 100 100 N N/A 30.18 1022 10 16.0934 N/A
6:56 am 06:56 Sunny 55 12.8 55 12.8 100 100 N N/A 30.19 1023 10 16.0934 N/A
7:26 am 07:26 Mostly Sunny 57 14 55 13 94 94 N N/A 30.21 1023 10 16.0934 N/A
7:56 am 07:56 undefined 60 15.6 58 14.4 93 93 N N/A 30.21 1023 10 16.0934 N/A
8:56 am 08:56 Sunny 66 18.9 59 15 78 78 N N/A 30.23 1024 10 16.0934 N/A
9:56 am 09:56 Sunny 71 21.7 59 15 66 66 N N/A 30.23 1024 10 16.0934 N/A
10:56 am 10:56 Sunny 74 23.3 59 15 60 60 N N/A 30.24 1024 10 16.0934 N/A
11:56 am 11:56 Sunny 76 24.4 58 14.4 54 54 ESE 8 13 30.24 1024 10 16.0934 N/A
12:56 pm 12:56 Mostly Sunny 77 25 59 15 54 54 ENE 7 11 30.23 1024 10 16.0934 N/A
1:56 pm 13:56 Mostly Cloudy 78 25.6 59 15 52 52 E 6 9 30.22 1023 10 16.0934 N/A
2:56 pm 14:56 Mostly Sunny 78 25.6 56 13.3 47 47 ESE 9 15 30.21 1023 10 16.0934 N/A
3:56 pm 15:56 Mostly Sunny 79 26.1 55 12.8 44 44 VRB 3 6 30.2 1023 10 16.0934 N/A
4:56 pm 16:56 Mostly Sunny 80 26.7 59 15 49 49 ESE 6 9 30.19 1023 10 16.0934 N/A
5:56 pm 17:56 Sunny 79 26.1 58 14.4 49 49 E 8 13 30.19 1022 10 16.0934 N/A
6:56 pm 18:56 Sunny 78 25.6 59 15 52 52 E 5 7 30.19 1022 10 16.0934 N/A
7:56 pm 19:56 Sunny 76 24.4 59 15 56 56 ESE 3 6 30.2 1023 10 16.0934 N/A
8:56 pm 20:56 Clear 72 22.2 63 17.2 73 73 N N/A 30.2 1023 10 16.0934 N/A
9:56 pm 21:56 Mostly Cloudy 70 21.1 61 16.1 73 73 N N/A 30.22 1023 10 16.0934 N/A
10:56 pm 22:56 Partly Cloudy 66 18.9 63 17.2 90 90 N N/A 30.23 1024 10 16.0934 N/A
11:56 pm 23:56 Clear 63 17.2 62 16.7 97 97 ESE 3 6 30.23 1024 10 16.0934 N/A

Powered by AerisWeather